NOSS 3-3 (A) - Orbit

View from above orbital plane
View from above orbital plane
View from above satellite
View from above satellite

Ground track
Ground track

The orbit data is extracted from the following two-line orbital elements,

1 28537U 05004A   13162.71793480 0.00000000  00000-0  00000-0 0    09
2 28537  63.4367 323.2499 0138000   0.3662 359.6338 13.40625455    09
Epoch (UTC): 11 June 2013 17:13:49
Eccentricity: 0.0138000
inclination: 63.4367°
perigee height: 1003 km
apogee height: 1210 km
right ascension of ascending node: 323.2499°
argument of perigee: 0.3662°
revolutions per day: 13.40625455
mean anomaly at epoch: 359.6338°
orbit number at epoch: 0

The dashed part of the orbit path shows where the satellite is in the earth's shadow,  

Developed and maintained by Chris Peat, Heavens-Above GmbH. Please read the updated FAQ before sending e-mail. Imprint. DLR